Location: doobydoo
(53.3403°N, 2.6908°W)
Time: 08:37:03
(UTC+00:00)

ISS - Pass Details

Date: 28 November 2021
Orbit: 413 x 422 km, 51.6° (Epoch: 19 January)

Event Time Altitude Azimuth Distance (km) Brightness Sun altitude
Rises 18:21:45 0° 267° (W) 2,381 1.7 -20.4°
Reaches altitude 10° 18:23:52 10° 265° (W) 1,514 0.3 -20.7°
Enters shadow 18:27:03 64° 208° (SSW) 473 -3.5 -21.2°
